Weather History for Marion, SC

Change the Weather History Date:

Tuesday, October 9, 2012

  Actual Average (KFLO) Record (KFLO)
Temperature  
Mean Temperature 54 °F 66 °F  
Max Temperature 57 °F 77 °F 92 °F (1990)
Min Temperature 50 °F 56 °F 38 °F (1978)
Degree Days  
Heating Degree Days 12 2  
Month to date heating degree days 15  
Since 1 July heating degree days 24  
Cooling Degree Days 0 4  
Month to date cooling degree days 40  
Year to date cooling degree days 1996  
Growing Degree Days 4 (Base 50)    
Moisture  
Dew Point 52 °F    
Average Humidity 94    
Maximum Humidity 100    
Minimum Humidity 82    
Precipitation  
Precipitation 0.00 in 0.11 in 2.06 in (1986)
Month to date precipitation 1.03  
Year to date precipitation 35.18  
Sea Level Pressure  
Sea Level Pressure 30.11 in    
Wind  
Wind Speed 5 mph (NNW)    
Max Wind Speed 8 mph    
Max Gust Speed -    
Visibility 8 miles    
Events      
T = Trace of Precipitation, MM = Missing Value Source: NWS Daily Summary

Daily Weather History Graph

Daily Weather History Graph

Search for Another Location

Airport:

Trip Planner

Search our weather history database for the weather conditions in past years. The results will help you decide how hot, cold, wet, or windy it might be!

Date:

Astronomy

Oct. 09, 2012 Rise Set
Actual Time 7:18 AM EDT 6:50 PM EDT
Civil Twilight 6:53 AM EDT 7:15 PM EDT
Nautical Twilight 6:24 AM EDT 7:44 PM EDT
Astronomical Twilight 5:55 AM EDT 8:13 PM EDT
Moon 1:08 AM EDT (10/9) 3:02 PM EDT (10/9)
Length of Visible Light 12h 22m
Length of Day
11h 31m
Last Quarter, 37% of the Moon is Illuminated
Oct 9
Last Quarter
Oct 15
New
Oct 21
First Quarter
Oct 29
Full
Nov 6
Last Quarter

Hourly Weather History & Observations

Time (EDT) Temp. Dew Point Humidity Pressure Visibility Wind Dir Wind Speed Gust Speed Precip Events Conditions
12:35 AM 51.8 °F 51.8 °F 100% 30.11 in 10.0 mi North 5.8 mph - N/A   Overcast
1:15 AM 51.8 °F 51.8 °F 100% 30.11 in 5.0 mi NNW 5.8 mph - N/A   Overcast
1:35 AM 51.8 °F 51.8 °F 100% 30.11 in 4.0 mi NNW 4.6 mph - N/A   Overcast
1:55 AM 51.8 °F 51.8 °F 100% 30.11 in 4.0 mi North 6.9 mph - N/A   Overcast
2:15 AM 51.8 °F 51.8 °F 100% 30.10 in 4.0 mi NNW 4.6 mph - N/A   Overcast
2:55 AM 51.8 °F 51.8 °F 100% 30.10 in 2.5 mi NNW 5.8 mph - N/A   Overcast
3:15 AM 51.8 °F 51.8 °F 100% 30.09 in 2.0 mi NNW 5.8 mph - N/A   Overcast
3:55 AM 50.0 °F 50.0 °F 100% 30.08 in 2.0 mi NNW 5.8 mph - N/A   Overcast
4:15 AM 50.0 °F 50.0 °F 100% 30.08 in 3.0 mi NNW 6.9 mph - N/A   Overcast
4:35 AM 50.0 °F 50.0 °F 100% 30.09 in 5.0 mi North 4.6 mph - N/A   Overcast
4:55 AM 50.0 °F 50.0 °F 100% 30.09 in 4.0 mi North 5.8 mph - N/A   Overcast
5:15 AM 50.0 °F 50.0 °F 100% 30.10 in 5.0 mi North 6.9 mph - N/A   Overcast
5:35 AM 50.0 °F 50.0 °F 100% 30.10 in 4.0 mi North 5.8 mph - N/A   Overcast
5:55 AM 50.0 °F 50.0 °F 100% 30.11 in 5.0 mi North 6.9 mph - N/A   Overcast
6:15 AM 50.0 °F 50.0 °F 100% 30.11 in 7.0 mi NNW 5.8 mph - N/A   Overcast
6:35 AM 50.0 °F 50.0 °F 100% 30.12 in 3.0 mi NNW 4.6 mph - N/A   Overcast
6:55 AM 50.0 °F 50.0 °F 100% 30.12 in 3.0 mi NNW 4.6 mph - N/A   Overcast
7:15 AM 50.0 °F 50.0 °F 100% 30.12 in 3.0 mi NNW 6.9 mph - N/A   Overcast
7:55 AM 50.0 °F 50.0 °F 100% 30.13 in 4.0 mi NNW 4.6 mph - N/A   Overcast
8:15 AM 51.8 °F 51.8 °F 100% 30.13 in 2.5 mi NNW 4.6 mph - N/A   Overcast
8:35 AM 51.8 °F 51.8 °F 100% 30.14 in 4.0 mi NNW 5.8 mph - N/A   Overcast
8:55 AM 51.8 °F 51.8 °F 100% 30.14 in 4.0 mi North 6.9 mph - N/A   Overcast
9:15 AM 51.8 °F 51.8 °F 100% 30.15 in 5.0 mi NNW 6.9 mph - N/A   Overcast
9:35 AM 51.8 °F 51.8 °F 100% 30.15 in 7.0 mi North 6.9 mph - N/A   Overcast
9:55 AM 51.8 °F 51.8 °F 100% 30.15 in 7.0 mi NNW 6.9 mph - N/A   Overcast
10:15 AM 51.8 °F 51.8 °F 100% 30.15 in 10.0 mi NNW 4.6 mph - N/A   Overcast
10:35 AM 51.8 °F 51.8 °F 100% 30.15 in 10.0 mi North 4.6 mph - N/A   Overcast
10:55 AM 51.8 °F 51.8 °F 100% 30.15 in 10.0 mi NNW 5.8 mph - N/A   Overcast
11:15 AM 51.8 °F 51.8 °F 100% 30.15 in 10.0 mi NNW 6.9 mph - N/A   Overcast
11:35 AM 53.6 °F 51.8 °F 94% 30.14 in 10.0 mi North 4.6 mph - N/A   Overcast
11:55 AM 53.6 °F 51.8 °F 94% 30.14 in 10.0 mi NNW 6.9 mph - N/A   Overcast
12:15 PM 53.6 °F 51.8 °F 94% 30.14 in 10.0 mi NNW 8.1 mph - N/A   Overcast
12:35 PM 53.6 °F 51.8 °F 94% 30.14 in 10.0 mi WNW 6.9 mph - N/A   Overcast
12:55 PM 55.4 °F 51.8 °F 88% 30.13 in 10.0 mi NW 8.1 mph - N/A   Overcast
1:15 PM 55.4 °F 51.8 °F 88% 30.12 in 10.0 mi NNW 5.8 mph - N/A   Overcast
1:35 PM 55.4 °F 51.8 °F 88% 30.11 in 10.0 mi NNW 6.9 mph - N/A   Overcast
1:55 PM 57.2 °F 51.8 °F 82% 30.10 in 10.0 mi NNW 6.9 mph - N/A   Overcast
2:15 PM 57.2 °F 51.8 °F 82% 30.10 in 10.0 mi NW 6.9 mph - N/A   Overcast
2:35 PM 57.2 °F 51.8 °F 82% 30.10 in 10.0 mi North 4.6 mph - N/A   Overcast
2:55 PM 57.2 °F 51.8 °F 82% 30.10 in 10.0 mi North 3.5 mph - N/A   Overcast
3:15 PM 57.2 °F 51.8 °F 82% 30.10 in 10.0 mi NW 5.8 mph - N/A   Overcast
3:35 PM 57.2 °F 51.8 °F 82% 30.10 in 10.0 mi NNW 3.5 mph - N/A   Overcast
3:55 PM 57.2 °F 51.8 °F 82% 30.10 in 10.0 mi NNE 5.8 mph - N/A   Overcast
4:15 PM 57.2 °F 51.8 °F 82% 30.10 in 10.0 mi Calm Calm - N/A   Overcast
4:35 PM 57.2 °F 51.8 °F 82% 30.10 in 10.0 mi Calm Calm - N/A   Overcast
4:55 PM 57.2 °F 51.8 °F 82% 30.09 in 10.0 mi Calm Calm - N/A   Overcast
5:15 PM 57.2 °F 51.8 °F 82% 30.10 in 10.0 mi Calm Calm - N/A   Overcast
5:35 PM 55.4 °F 53.6 °F 94% 30.09 in 10.0 mi Calm Calm - N/A   Overcast
5:55 PM 55.4 °F 53.6 °F 94% 30.10 in 10.0 mi North 3.5 mph - N/A   Overcast
6:15 PM 55.4 °F 53.6 °F 94% 30.09 in 10.0 mi Calm Calm - N/A   Overcast
6:35 PM 55.4 °F 53.6 °F 94% 30.10 in 10.0 mi NNW 3.5 mph - N/A   Overcast
6:55 PM 55.4 °F 53.6 °F 94% 30.10 in 10.0 mi NNW 3.5 mph - N/A   Overcast
7:15 PM 55.4 °F 51.8 °F 88% 30.10 in 10.0 mi Calm Calm - N/A   Overcast
7:35 PM 55.4 °F 53.6 °F 94% 30.10 in 10.0 mi Calm Calm - N/A   Overcast
7:55 PM 55.4 °F 53.6 °F 94% 30.10 in 10.0 mi Calm Calm - N/A   Overcast
8:15 PM 55.4 °F 53.6 °F 94% 30.10 in 10.0 mi Calm Calm - N/A   Overcast
8:35 PM 55.4 °F 53.6 °F 94% 30.10 in 10.0 mi North 3.5 mph - N/A   Overcast
8:55 PM 55.4 °F 53.6 °F 94% 30.11 in 10.0 mi Calm Calm - N/A   Overcast
9:15 PM 55.4 °F 53.6 °F 94% 30.11 in 10.0 mi Calm Calm - N/A   Overcast
9:35 PM 55.4 °F 53.6 °F 94% 30.11 in 10.0 mi Calm Calm - N/A   Overcast
9:55 PM 55.4 °F 53.6 °F 94% 30.12 in 10.0 mi Calm Calm - N/A   Overcast
10:15 PM 55.4 °F 53.6 °F 94% 30.12 in 10.0 mi Calm Calm - N/A   Overcast
10:35 PM 55.4 °F 53.6 °F 94% 30.13 in 10.0 mi Calm Calm - N/A   Overcast
10:55 PM 55.4 °F 53.6 °F 94% 30.13 in 10.0 mi Calm Calm - N/A   Overcast
11:15 PM 55.4 °F 53.6 °F 94% 30.12 in 10.0 mi Calm Calm - N/A   Overcast
11:35 PM 55.4 °F 53.6 °F 94% 30.12 in 10.0 mi Calm Calm - N/A   Overcast
11:55 PM 55.4 °F 53.6 °F 94% 30.12 in 10.0 mi Calm Calm - N/A   Overcast